#timestamp,LO_Frequency,Hit,StdDev 
1593273615.2,286047003.5,N
1593273635.1,286047005.3,N
1593273636.0,286047005.3,N
1593273655.8,286047002.9,N
1593273675.7,286047006.5,N
1593273695.5,286047006.8,N
1593273715.3,286047007.6,N
1593273735.2,286047005.0,N
1593273755.0,286047008.5,N
1593273755.9,286047008.5,N
1593273775.7,286047008.8,N
1593273795.6,286047010.4,N
1593273815.4,286047013.9,Y
1593273835.3,286047008.0,P
1593273855.1,286047010.7,P
1593273856.0,286047010.7,P
1593273875.8,286047008.1,N
1593273895.7,286047008.3,N
1593273915.5,286047008.0,Y
1593273935.4,286046999.7,P
1593273955.2,286047000.2,N
1593273975.0,286046998.9,N
1593273975.9,286046998.9,N
1593273995.8,286047000.5,N
1593274015.6,286046999.7,N
1593274035.4,286047001.8,N
1593274055.3,286047002.6,N
1593274075.1,286047000.1,N
1593274095.9,286047002.6,N
1593274115.7,286047002.8,N
1593274135.5,286047002.5,N
1593274155.4,286047001.0,N
1593274175.2,286047000.7,N
1593274195.0,286047001.4,N
1593274195.9,286047001.4,N
1593274215.8,286047003.9,N
1593274235.6,286047004.3,N
1593274255.5,286047004.6,N
1593274275.3,286047004.9,N
1593274295.1,286047005.9,N
1593274315.9,286047004.9,N
1593274335.7,286047007.0,N
1593274355.5,286047006.7,N
1593274375.4,286047007.4,N
1593274425.2,286047005.4,E
1593274435.2,286047001.7,N
1593274455.0,286047002.7,P
1593274455.9,286047002.7,P
1593274475.7,286046999.9,N
1593274495.6,286047002.1,N
1593274515.4,286047003.3,Y
1593274535.3,286047002.6,P
1593274555.1,286046998.6,P
1593274556.0,286046998.6,N
1593274575.8,286047000.9,N
1593274595.7,286047002.3,N
1593274615.5,286047002.3,N
1593274635.3,286047001.4,N
1593274655.2,286047001.9,N
1593274675.0,286047007.0,Y
1593274675.9,286047007.0,P
1593274695.8,286047005.7,N
1593274715.6,286047006.1,N
1593274735.4,286047007.9,Y
1593274755.3,286047005.0,P
1593274775.1,286047006.0,P
1593274795.9,286047004.1,P
1593274815.7,286047003.9,Y
1593274835.5,286046998.9,P
1593274855.4,286046998.1,N
1593274875.2,286046998.9,N
1593274895.0,286046999.2,N
1593274895.9,286046999.2,N
1593274915.8,286046999.6,N
1593274935.6,286046999.6,N
1593274955.5,286046996.9,N
1593274975.3,286047001.1,N
1593274995.1,286047001.9,N
1593275015.9,286047002.8,N
1593275035.7,286047001.2,N
1593275055.5,286047001.0,N
1593275075.4,286047001.1,N
1593275095.2,286047000.0,N
1593275115.0,286047004.2,N
1593275116.0,286047004.2,N
1593275135.8,286047003.0,N
1593275155.6,286047003.7,N
1593275175.5,286047001.8,N
1593275195.3,286047002.5,N
1593275215.1,286046999.7,N
1593275235.9,286047002.0,N
1593275255.7,286047003.8,N
1593275275.5,286047003.5,N
1593275295.4,286047004.6,N
1593275315.2,286047004.6,N
1593275335.1,286047005.7,N
1593275336.0,286047005.7,N
1593275355.8,286047004.3,N
1593275375.6,286047004.1,N
1593275395.5,286047002.1,N
1593275415.3,286047001.9,N
1593275435.1,286047003.2,N
1593275455.9,286047002.1,N
1593275475.7,286047003.6,N
1593275495.6,286047003.2,N
1593275515.4,286047004.2,N
1593275535.2,286046999.7,N
1593275555.1,286047000.0,N
1593275556.0,286047000.0,N
1593275575.8,286046997.0,N
1593275595.6,286046999.1,N
1593275615.5,286046996.6,N
1593275635.3,286046997.3,N
1593275655.2,286046996.1,N
1593275675.9,286046996.2,N
1593275695.7,286046994.1,N
1593275715.6,286046991.0,N
1593275735.4,286046985.6,Y
1593275755.2,286046985.0,P
1593275775.1,286046985.0,N
1593275776.0,286046985.0,N
1593275795.8,286046985.2,N
1593275815.7,286046987.5,N
1593275835.5,286046988.0,N
1593275855.3,286046987.5,N
1593275875.2,286046986.4,N
1593275895.0,286046984.5,Y
1593275895.9,286046984.5,P
1593275915.8,286046999.5,N
1593275935.6,286046999.3,N
1593275955.4,286046997.3,N
1593275975.3,286046997.9,N
1593275995.1,286046997.2,N
1593276015.9,286046993.6,N
1593276035.7,286046991.8,N
1593276055.5,286046992.8,N
1593276075.4,286046992.3,N
1593276095.2,286046994.8,N
1593276115.0,286046994.4,N
1593276116.0,286046994.4,N
1593276135.8,286046995.8,N
1593276155.6,286046996.2,N
1593276175.5,286046994.9,N
1593276195.3,286046998.6,N
1593276215.1,286047000.0,N
1593276235.9,286047001.0,N
1593276255.7,286047002.5,N
1593276275.6,286047003.9,N
1593276295.4,286047005.2,N
1593276315.2,286047007.4,N
1593276335.1,286047008.6,N
1593276336.0,286047008.6,N
1593276355.8,286047008.8,N
1593276375.6,286047006.8,N
1593276395.5,286047008.8,N
1593276415.3,286047009.0,N
1593276435.2,286047007.1,N
1593276455.9,286047005.3,N
1593276475.7,286047006.0,N
1593276495.6,286047003.7,N
1593276515.4,286047001.4,N
1593276535.2,286047002.1,N
1593276555.1,286047001.9,N
1593276556.0,286047001.9,N
1593276575.8,286047002.3,N
1593276595.7,286047000.1,N
1593276615.5,286046998.8,N
1593276635.3,286046999.7,N
1593276655.2,286047006.2,N
1593276675.0,286047011.6,N
1593276675.9,286047011.6,N
1593276695.7,286047015.5,Y
1593276715.6,286047010.6,P
1593276735.4,286047010.8,P
1593276755.3,286047012.7,P
1593276775.1,286047019.1,Y
1593276795.8,286047013.9,P
1593276815.7,286047012.1,P
1593276835.5,286047007.6,P
1593276855.3,286047004.1,N
1593276875.2,286046999.6,N
1593276895.0,286046996.8,N
1593276895.9,286046996.8,N
1593276915.8,286046995.3,N
1593276935.6,286046996.2,N
1593276955.4,286046996.3,N
1593276975.3,286046991.9,N
1593276995.1,286046993.2,N
1593277015.9,286046989.2,N
1593277035.7,286046993.1,N
1593277055.5,286046990.1,N
1593277075.4,286046993.0,N
1593277095.2,286046994.7,N
1593277115.0,286046994.8,N
1593277115.9,286046994.8,N
1593277135.8,286046994.8,N
1593277155.6,286046994.3,N
1593277175.5,286046996.4,N
1593277195.3,286046997.6,N
